Preview of NWS' New Version of Forecast
This preview is not operational and should not be used for support decisions.
Latest weather observations around

Concord, Buchanan Field (KCCR)

Using International System of Units (Switch to English Units)
Date/ Time (PDT) Wind (kph) Vis. (km) Weather Sky Cond. Temp (°C) Rel. Humidity Wind Chill (°C) Heat Index (°C) Pressure Precip. (cm)
Air Dwpt 6 hour Altimeter (hPa) Sea level (hPa) 1 hr 3 hr 6 hr
Max Min
Aug 25 10:53 11 16.09 Clear CLR 27 15     49%   27 1015.2        
Aug 25 09:53 NNW 9 16.09 Clear CLR 24 15     57%   24 1015.2        
Aug 25 08:53 WNW 5 16.09 Clear CLR 22 14     61%   22 1015.6        
Aug 25 07:53 Calm 16.09 Clear CLR 19 14     71%     1015.2        
Aug 25 06:53 NW 5 16.09 Clear CLR 18 13     75%     1014.9        
Aug 25 05:53 Calm 16.09 Clear CLR 18 13     75%     1014.6        
Aug 25 04:53 Calm 16.09 Clear CLR 18 14     78%     1014.2        
Aug 25 03:53 NNW 8 16.09 Clear CLR 18 13     75%     1014.2        
Aug 25 02:53 Calm 16.09 Clear CLR 19 14     71%     1014.2        
Aug 25 01:53 NW 11 16.09 Clear CLR 20 14     68%     1014.2        
Aug 25 00:53 NW 9 16.09 Clear CLR 21 13     63%     1013.9        
Aug 24 23:53 NW 9 16.09 Clear CLR 22 13     57%   21 1013.9        
Aug 24 22:53 N 11 16.09 Clear CLR 22 12     51%   22 1013.9        
Aug 24 21:53 W 13 16.09 Clear CLR 24 11     42%   24 1013.6        
Aug 24 20:53 W 11 16.09 Clear CLR 26 10     37%   25 1012.9        
Aug 24 19:53 WSW 11 16.09 Clear CLR 27 9     32%   27 1012.5        
Aug 24 18:53 SW 17 16.09 Clear CLR 29 8     27%   28 1012.5        
Aug 24 17:53 WSW 22 16.09 Clear CLR 31 7     23%   29 1012.5        
Aug 24 16:53 WSW 21 16.09 Clear CLR 32 8     23%   30 1012.2        
Aug 24 15:53 W 18 16.09 Clear CLR 33 9     24%   31 1012.5        
Aug 24 14:53 WNW 26 16.09 Clear CLR 32 11     27%   31 1012.5        
Aug 24 13:53 WNW 22 16.09 Clear CLR 31 13     34%   30 1012.9        
Aug 24 12:53 WNW 22 16.09 Clear CLR 30 13     36%   29 1012.9        
Aug 24 11:53 NW 24 16.09 Clear CLR 27 13     42%   27 1013.2        
Aug 24 10:53 NW 17 16.09 Clear CLR 24 14     52%   24 1013.6        
Aug 24 09:53 WNW 17 16.09 Clear CLR 22 14     61%   22 1013.2        
Aug 24 08:53 WNW 15 16.09 Clear CLR 19 13     68%     1013.2        
Aug 24 07:53 W 18 16.09 Clear CLR 18 13     75%     1012.9        
Aug 24 06:53 Calm 16.09 Clear CLR 17 13     80%     1012.2        
Aug 24 05:53 W 17 16.09 Clear CLR 17 13     80%     1011.5        
Aug 24 04:53 W 13 16.09 Clear CLR 17 13     80%     1011.5        
Aug 24 03:53 WNW 18 16.09 Clear CLR 17 13     78%     1010.8        
Aug 24 02:53 WNW 9 16.09 Clear CLR 17 13     78%     1010.5        
Aug 24 01:53 WNW 11 16.09 Clear CLR 18 13     75%     1010.5        
Aug 24 00:53 WNW 15 16.09 Clear CLR 18 13     75%     1010.5        
Aug 23 23:53 WNW 11 16.09 Clear CLR 18 13     73%     1010.2        
Aug 23 22:53 W 13 16.09 Clear CLR 18 13     73%     1010.2        
Aug 23 21:53 W 11 16.09 Clear CLR 19 13     70%     1010.2        
Aug 23 20:53 WSW 13 16.09 Clear CLR 21 13     61%     1009.2        
Aug 23 19:53 WSW 15 16.09 Clear CLR 23 13     55%   23 1008.8        
Aug 23 18:53 5 16.09 Clear CLR 26 14     48%   25 1007.8        
Aug 23 17:53 SW 11 16.09 Clear CLR 26 13     45%   26 1007.8        
Aug 23 16:53 WSW 24 16.09 Clear CLR 28 14     41%   28 1007.8        
Aug 23 15:53 W 18 16.09 Clear CLR 32 14     34%   32 1007.5        
Aug 23 14:53 W 21 16.09 Clear CLR 32 14     34%   32 1007.5        
Aug 23 13:53 WNW 18 16.09 Clear CLR 31 14     36%   31 1007.8        
Aug 23 12:53 NW 18 16.09 Clear CLR 31 15     39%   30 1008.1        
Aug 23 11:53 NW 18 16.09 Clear CLR 29 15     43%   29 1008.5        
Aug 23 10:53 NW 13 16.09 Clear   27 15     49%   27 1008.5        
Aug 23 09:53     Clear   24 15     56%   24 1008.5        
Aug 23 08:53 Calm 16.09 Clear CLR 22 14     61%   22 1008.1        
Aug 23 07:53 Calm 12.87 Clear CLR 19 14     73%     1007.8        
Aug 23 06:53 Calm 9.66 Haze CLR 18 14     81%     1007.5        
Aug 23 05:53 WNW 8 12.87 Clear CLR 18 14     78%     1006.8        
Aug 23 04:53 NNW 8 12.87 Clear CLR 18 14     81%     1006.1        
Aug 23 03:53 N 5 14.48 Clear CLR 18 14     78%     1006.1        
Aug 23 02:53 Calm 14.48 Clear CLR 18 14     78%     1006.1        
Aug 23 01:53 NNW 8 14.48 Clear CLR 19 14     71%     1006.1        
Aug 23 00:53 NNW 8 16.09 Clear CLR 20 14     68%     1006.1        
Aug 22 23:53 SW 9 16.09 Clear CLR 23 12     50%   23 1006.1        
Aug 22 22:53 Calm 16.09 Clear CLR 23 14     57%   23 1006.1        
Aug 22 21:53 S 9 16.09 Clear CLR 27 11     38%   26 1006.1        
Aug 22 20:53 S 11 16.09 Clear CLR 28 11     35%   27 1005.8        
Aug 22 19:53 WSW 9 16.09 Clear CLR 30 10     29%   29 1005.1        
Aug 22 18:53 SW 15 16.09 Clear CLR 33 12     29%   32 1005.1        
Aug 22 17:53 W 13 16.09 Clear CLR 34 14     29%   34 1005.1        
Aug 22 16:53 WNW 22 16.09 Clear CLR 36 13     25%   35 1005.1        
Aug 22 15:53 W 17 16.09 Clear CLR 35 13     26%   34 1005.8        
Aug 22 14:53 NNW 15 16.09 Clear CLR 36 14     28%   35 1006.4        
Aug 22 13:53   16.09 Clear CLR 34 16     35%   34 1007.5        
Aug 22 12:53 NNW 13 16.09 Clear CLR 32 17     40%   32 1008.1        
Aug 22 11:53 NNE 8 16.09 Clear CLR 31 17     43%   31 1008.8        
May 15 01:49 W 9 16.09 Mostly Cloudy BKN020 13 9     77%     1015.6        
May 14 19:53 SW 24 16.09 Clear CLR 15 9     67%     1014.6        
May 14 17:53 W 30 16.09 Clear CLR 18 9     56%     1013.9        
May 14 15:53   16.09 Clear CLR 19 9     52%     1014.6        
May 14 14:53 WSW 32 16.09 Mostly Clear and Windy FEW026 19 9     54%     1015.2        
May 14 04:53 WSW 17 16.09 Cloudy OVC016 13 8     74%     1015.6        
May 12 13:53   16.09 Clear   26 8     32%   26 1010.5        
May 11 18:53   16.09 Clear CLR 28 0     16%   27 1006.8        
Jun 12 06:53 SSW 13 16.09 Clear CLR 13 9     77%     1017.6        
Jun 11 17:53   16.09 Mostly Cloudy SCT046 BKN085 18 7     47%     1013.9        
Jun 11 16:53 W 28 16.09 Clear CLR 21 6     39%     1012.9        
Jun 10 19:53 WNW 26 16.09 Mostly Clear FEW037 18 8     54%     1013.2        
Jun 10 13:53 WNW 26 16.09 Partly Cloudy SCT040 23 6     34%   22 1013.9        
Jun 10 07:53   16.09 Clear CLR 16 7     55%     1014.2        
Jun 09 20:53 SW 18 16.09 Clear CLR 16 7     56%     1014.2        
Jun 09 09:06 W 17 16.09 Cloudy BKN019 OVC029 17 14     81%     1013.9        
Jun 09 04:53 SSW 5 16.09 Cloudy OVC029 17 14     84%     1013.9       0
Jun 09 01:53 WSW 13 16.09 Cloudy FEW011 OVC025 17 14     86%     1014.6     0  
Jun 08 20:53 WNW 8 16.09 Cloudy OVC035 18 15     84%     1015.2        
Jun 08 10:00 SSW 15 16.09 Cloudy OVC029 17 8     56%     1016.3        
Jun 07 06:53   16.09 Mostly Clear FEW012 13 11     84%     1012.2